B3459 ZYTL-ZSQD

Flight info

Callsign B3459
Flight time 0h 50m
Altitude 21700
Route KARPI W5 HCH W4 UPDAD
Aircraft DH8D/M-SDE2E3FGRY/H

Departure

Time 2026-05-08 03:56
Airport Dalian Zhoushuizi International Airport (ZYTL)

Arrival

Time 2026-05-08 04:46
Airport Qingdao Jiaodong International Airport (ZSQD)
Time Latitude Longitude Altitude Speed Heading
2026-05-08 03:07 38.96340 121.52782 116 ft 0 kts 276°
2026-05-08 03:45 38.96340 121.52779 116 ft 3 kts 276°
2026-05-08 03:45 38.96341 121.52766 116 ft 0 kts 280°
2026-05-08 03:45 38.96356 121.52728 116 ft 8 kts 313°
2026-05-08 03:46 38.96399 121.52731 116 ft 7 kts
2026-05-08 03:46 38.96448 121.52762 116 ft 13 kts 74°
2026-05-08 03:46 38.96443 121.52912 116 ft 16 kts 94°
2026-05-08 03:46 38.96432 121.53050 116 ft 14 kts 95°
2026-05-08 03:47 38.96422 121.53173 116 ft 12 kts 95°
2026-05-08 03:47 38.96429 121.53276 116 ft 9 kts 84°
2026-05-08 03:47 38.96429 121.53358 116 ft 9 kts 95°
2026-05-08 03:47 38.96424 121.53433 116 ft 3 kts 95°
2026-05-08 03:49 38.96424 121.53441 116 ft 1 kts 94°
2026-05-08 03:49 38.96423 121.53457 116 ft 0 kts 94°
2026-05-08 03:49 38.96422 121.53473 116 ft 7 kts 94°
2026-05-08 03:50 38.96417 121.53553 116 ft 9 kts 97°
2026-05-08 03:50 38.96410 121.53635 116 ft 9 kts 96°
2026-05-08 03:50 38.96403 121.53715 116 ft 9 kts 97°
2026-05-08 03:50 38.96397 121.53795 116 ft 9 kts 96°
2026-05-08 03:51 38.96391 121.53874 116 ft 8 kts 95°
2026-05-08 03:51 38.96386 121.53959 116 ft 14 kts 94°
2026-05-08 03:51 38.96366 121.54195 116 ft 32 kts 95°
2026-05-08 03:51 38.96347 121.54456 116 ft 26 kts 95°
2026-05-08 03:52 38.96330 121.54670 116 ft 21 kts 95°
2026-05-08 03:52 38.96334 121.54819 116 ft 10 kts 42°
2026-05-08 03:52 38.96388 121.54812 116 ft 7 kts 315°
2026-05-08 03:52 38.96413 121.54775 116 ft 0 kts 303°
2026-05-08 03:53 38.96414 121.54774 116 ft 0 kts 303°
2026-05-08 03:53 38.96414 121.54773 116 ft 0 kts 303°
2026-05-08 03:54 38.96420 121.54761 116 ft 3 kts 304°
2026-05-08 03:54 38.96442 121.54718 116 ft 5 kts 304°
2026-05-08 03:54 38.96480 121.54649 116 ft 11 kts 304°
2026-05-08 03:54 38.96521 121.54479 116 ft 30 kts 278°
2026-05-08 03:55 38.96534 121.54343 116 ft 0 kts 278°
2026-05-08 03:55 38.96543 121.54237 116 ft 44 kts 279°
2026-05-08 03:55 38.96591 121.53496 116 ft 129 kts 276°
2026-05-08 03:56 38.96709 121.52070 391 ft 179 kts 281°
2026-05-08 03:56 38.96882 121.50635 1704 ft 159 kts 287°
2026-05-08 03:56 38.97071 121.49265 2678 ft 155 kts 282°
2026-05-08 03:56 38.97144 121.47944 3373 ft 154 kts 280°
2026-05-08 03:57 38.97223 121.46542 3906 ft 160 kts 281°
2026-05-08 03:57 38.97311 121.45128 4522 ft 160 kts 281°
2026-05-08 03:57 38.97409 121.43688 5037 ft 169 kts 281°
2026-05-08 03:57 38.97533 121.42072 5245 ft 190 kts 281°
2026-05-08 03:58 38.97655 121.40390 5743 ft 192 kts 281°
2026-05-08 03:58 38.97783 121.38679 6250 ft 194 kts 282°
2026-05-08 03:58 38.98267 121.37136 6757 ft 186 kts 319°
2026-05-08 03:58 38.99466 121.36599 7255 ft 192 kts 358°
2026-05-08 03:59 39.00780 121.36701 7898 ft 189 kts
2026-05-08 03:59 39.02099 121.36830 8301 ft 190 kts
2026-05-08 03:59 39.03424 121.36971 8707 ft 192 kts
2026-05-08 03:59 39.04777 121.37125 9206 ft 196 kts
2026-05-08 04:00 39.06043 121.37740 9818 ft 206 kts 36°
2026-05-08 04:00 39.06673 121.39455 10331 ft 231 kts 78°
2026-05-08 04:00 39.06587 121.41580 10882 ft 240 kts 90°
2026-05-08 04:00 39.06406 121.43726 11420 ft 242 kts 90°
2026-05-08 04:01 39.06224 121.45895 11957 ft 244 kts 90°
2026-05-08 04:01 39.06045 121.48069 12489 ft 246 kts 89°
2026-05-08 04:01 39.05868 121.50259 13058 ft 247 kts 89°
2026-05-08 04:01 39.05693 121.52465 13607 ft 249 kts 89°
2026-05-08 04:02 39.05484 121.54748 13713 ft 273 kts 96°
2026-05-08 04:02 39.04585 121.57045 13776 ft 302 kts 131°
2026-05-08 04:02 39.02762 121.58459 13945 ft 312 kts 167°
2026-05-08 04:02 39.00603 121.58517 14293 ft 307 kts 194°
2026-05-08 04:03 38.98448 121.58031 14714 ft 309 kts 195°
2026-05-08 04:03 38.94638 121.56055 15450 ft 295 kts 223°
2026-05-08 04:03 38.92940 121.54487 15729 ft 301 kts 223°
2026-05-08 04:04 38.91264 121.52967 16115 ft 300 kts 223°
2026-05-08 04:04 38.89532 121.51418 16467 ft 302 kts 222°
2026-05-08 04:04 38.87808 121.49894 16792 ft 304 kts 222°
2026-05-08 04:04 38.86090 121.48395 17125 ft 305 kts 221°
2026-05-08 04:05 38.84316 121.46867 17437 ft 307 kts 221°
2026-05-08 04:05 38.82537 121.45342 17816 ft 308 kts 221°
2026-05-08 04:05 38.80742 121.43810 18207 ft 308 kts 221°
2026-05-08 04:05 38.78975 121.42306 18539 ft 309 kts 221°
2026-05-08 04:06 38.77186 121.40787 18830 ft 311 kts 222°
2026-05-08 04:06 38.75362 121.39241 19149 ft 311 kts 222°
2026-05-08 04:06 38.73544 121.37702 19392 ft 312 kts 222°
2026-05-08 04:06 38.71718 121.36158 19603 ft 315 kts 222°
2026-05-08 04:07 38.69898 121.34619 19780 ft 321 kts 222°
2026-05-08 04:07 38.68035 121.33041 19817 ft 329 kts 221°
2026-05-08 04:07 38.66095 121.31398 19829 ft 338 kts 221°
2026-05-08 04:07 38.64084 121.29696 19824 ft 344 kts 221°
2026-05-08 04:08 38.62051 121.27979 19819 ft 350 kts 221°
2026-05-08 04:08 38.59999 121.26246 19815 ft 354 kts 221°
2026-05-08 04:08 38.57924 121.24496 19815 ft 358 kts 221°
2026-05-08 04:08 38.55843 121.22742 19816 ft 361 kts 221°
2026-05-08 04:09 38.53949 121.20752 19800 ft 350 kts 236°
2026-05-08 04:09 38.52453 121.18295 19807 ft 348 kts 241°
2026-05-08 04:09 38.51013 121.15826 19817 ft 349 kts 241°
2026-05-08 04:09 38.49557 121.13322 19823 ft 349 kts 241°
2026-05-08 04:10 38.48103 121.10827 19825 ft 350 kts 241°
2026-05-08 04:10 38.46617 121.08284 19819 ft 351 kts 241°
2026-05-08 04:10 38.45153 121.05785 19807 ft 351 kts 241°
2026-05-08 04:10 38.43646 121.03304 19802 ft 355 kts 237°
2026-05-08 04:11 38.41660 121.01388 19857 ft 369 kts 217°
2026-05-08 04:11 38.39334 120.99861 19828 ft 371 kts 214°
2026-05-08 04:11 38.37052 120.98418 19807 ft 367 kts 213°
2026-05-08 04:11 38.34775 120.96996 19814 ft 362 kts 213°
2026-05-08 04:12 38.32496 120.95577 19818 ft 360 kts 214°
2026-05-08 04:12 38.30243 120.94174 19825 ft 359 kts 214°
2026-05-08 04:12 38.27998 120.92780 19825 ft 358 kts 214°
2026-05-08 04:12 38.25743 120.91380 19822 ft 357 kts 214°
2026-05-08 04:13 38.23467 120.89971 19822 ft 356 kts 214°
2026-05-08 04:13 38.21265 120.88609 19813 ft 356 kts 214°
2026-05-08 04:13 38.19038 120.87232 19828 ft 355 kts 214°
2026-05-08 04:13 38.16821 120.85864 19830 ft 355 kts 214°
2026-05-08 04:14 38.14598 120.84492 19828 ft 355 kts 214°
2026-05-08 04:14 38.12378 120.83122 19826 ft 355 kts 214°
2026-05-08 04:14 38.10141 120.81745 19839 ft 355 kts 214°
2026-05-08 04:14 38.07924 120.80380 19828 ft 356 kts 214°
2026-05-08 04:15 38.05680 120.79001 19821 ft 356 kts 214°
2026-05-08 04:15 38.03466 120.77640 19824 ft 356 kts 214°
2026-05-08 04:15 38.01228 120.76268 19836 ft 355 kts 214°
2026-05-08 04:15 37.98998 120.74900 19831 ft 355 kts 214°
2026-05-08 04:16 37.96819 120.73565 19821 ft 355 kts 214°
2026-05-08 04:16 37.94567 120.72185 19813 ft 354 kts 214°
2026-05-08 04:16 37.92354 120.70829 19821 ft 354 kts 214°
2026-05-08 04:16 37.90138 120.69473 19816 ft 355 kts 214°
2026-05-08 04:17 37.88159 120.68265 19811 ft 349 kts 214°
2026-05-08 04:17 37.86112 120.67020 19825 ft 345 kts 214°
2026-05-08 04:17 37.83834 120.65630 19837 ft 345 kts 214°
2026-05-08 04:17 37.81637 120.64285 19817 ft 347 kts 215°
2026-05-08 04:18 37.79504 120.62983 19802 ft 347 kts 214°
2026-05-08 04:18 37.77316 120.61649 19792 ft 347 kts 214°
2026-05-08 04:18 37.75122 120.60313 19835 ft 346 kts 214°
2026-05-08 04:18 37.72961 120.58997 19826 ft 347 kts 215°
2026-05-08 04:19 37.70811 120.57690 19817 ft 345 kts 214°
2026-05-08 04:19 37.68660 120.56381 19831 ft 346 kts 214°
2026-05-08 04:19 37.66489 120.55063 19819 ft 348 kts 214°
2026-05-08 04:19 37.64242 120.53951 19817 ft 355 kts 204°
2026-05-08 04:20 37.61880 120.53294 19829 ft 359 kts 199°
2026-05-08 04:20 37.59376 120.52711 19835 ft 361 kts 198°
2026-05-08 04:20 37.56889 120.52150 19833 ft 363 kts 198°
2026-05-08 04:20 37.54375 120.51594 19835 ft 364 kts 198°
2026-05-08 04:21 37.51932 120.51061 19843 ft 364 kts 198°
2026-05-08 04:21 37.49380 120.50510 19847 ft 364 kts 198°
2026-05-08 04:21 37.46918 120.49980 19840 ft 364 kts 198°
2026-05-08 04:21 37.44415 120.49445 19839 ft 364 kts 197°
2026-05-08 04:22 37.41908 120.48910 19837 ft 365 kts 197°
2026-05-08 04:22 37.39387 120.48375 19834 ft 365 kts 197°
2026-05-08 04:22 37.36875 120.47842 19815 ft 365 kts 197°
2026-05-08 04:22 37.34394 120.47317 19810 ft 364 kts 197°
2026-05-08 04:23 37.31835 120.46778 19817 ft 364 kts 197°
2026-05-08 04:23 37.29292 120.46242 19802 ft 363 kts 197°
2026-05-08 04:23 37.26967 120.45755 19817 ft 361 kts 197°
2026-05-08 04:23 37.24429 120.45221 19834 ft 361 kts 197°
2026-05-08 04:24 37.21928 120.44694 19832 ft 360 kts 197°
2026-05-08 04:24 37.19509 120.44192 19534 ft 358 kts 197°
2026-05-08 04:24 37.17028 120.43670 19232 ft 358 kts 197°
2026-05-08 04:24 37.14564 120.43156 18982 ft 359 kts 197°
2026-05-08 04:25 37.12116 120.42643 18839 ft 356 kts 197°
2026-05-08 04:25 37.09670 120.42132 18601 ft 358 kts 196°
2026-05-08 04:25 37.07209 120.41616 18470 ft 357 kts 197°
2026-05-08 04:25 37.04725 120.41098 18280 ft 355 kts 197°
2026-05-08 04:26 37.02293 120.40590 18047 ft 355 kts 197°
2026-05-08 04:26 36.99840 120.40077 17789 ft 356 kts 196°
2026-05-08 04:26 36.97414 120.39573 17675 ft 353 kts 196°
2026-05-08 04:26 36.94979 120.39066 17415 ft 353 kts 196°
2026-05-08 04:27 36.92574 120.38565 17279 ft 350 kts 196°
2026-05-08 04:27 36.90168 120.38065 17076 ft 350 kts 196°
2026-05-08 04:27 36.87809 120.37574 16836 ft 348 kts 196°
2026-05-08 04:27 36.85432 120.37078 16636 ft 348 kts 195°
2026-05-08 04:28 36.83019 120.36578 16437 ft 347 kts 196°
2026-05-08 04:28 36.80650 120.36086 16254 ft 345 kts 195°
2026-05-08 04:28 36.78311 120.35601 16142 ft 342 kts 195°
2026-05-08 04:28 36.75948 120.35111 15940 ft 342 kts 195°
2026-05-08 04:29 36.73643 120.34632 15715 ft 340 kts 194°
2026-05-08 04:29 36.71329 120.34153 15481 ft 339 kts 194°
2026-05-08 04:29 36.69076 120.33689 15177 ft 335 kts 194°
2026-05-08 04:29 36.66793 120.33217 14768 ft 334 kts 194°
2026-05-08 04:30 36.64508 120.32745 14347 ft 333 kts 194°
2026-05-08 04:30 36.62248 120.32279 13974 ft 331 kts 194°
2026-05-08 04:30 36.60007 120.31817 13623 ft 327 kts 194°
2026-05-08 04:30 36.57737 120.31349 13145 ft 328 kts 194°
2026-05-08 04:31 36.55489 120.30885 12813 ft 324 kts 193°
2026-05-08 04:31 36.53289 120.30432 12491 ft 319 kts 193°
2026-05-08 04:31 36.51180 120.30011 12452 ft 297 kts 193°
2026-05-08 04:31 36.49108 120.29586 12009 ft 295 kts 193°
2026-05-08 04:32 36.47124 120.29182 11492 ft 291 kts 193°
2026-05-08 04:32 36.45127 120.28770 10858 ft 291 kts 193°
2026-05-08 04:32 36.43171 120.28368 10325 ft 287 kts 193°
2026-05-08 04:32 36.41149 120.27953 9654 ft 287 kts 192°
2026-05-08 04:33 36.39212 120.27554 9126 ft 281 kts 192°
2026-05-08 04:33 36.37313 120.27165 8548 ft 279 kts 192°
2026-05-08 04:33 36.35401 120.26774 8054 ft 274 kts 192°
2026-05-08 04:33 36.33557 120.26395 7504 ft 271 kts 192°
2026-05-08 04:34 36.31705 120.26015 6960 ft 268 kts 192°
2026-05-08 04:34 36.29870 120.25644 6433 ft 264 kts 191°
2026-05-08 04:34 36.28047 120.25726 5939 ft 259 kts 166°
2026-05-08 04:34 36.26498 120.26342 6196 ft 220 kts 163°
2026-05-08 04:35 36.25061 120.26911 5873 ft 213 kts 163°
2026-05-08 04:35 36.23640 120.27469 5415 ft 212 kts 163°
2026-05-08 04:35 36.22268 120.28007 4984 ft 207 kts 163°
2026-05-08 04:35 36.20903 120.28542 4367 ft 206 kts 163°
2026-05-08 04:36 36.19558 120.29067 3734 ft 204 kts 163°
2026-05-08 04:36 36.18251 120.29579 3384 ft 185 kts 163°
2026-05-08 04:36 36.17037 120.30048 3259 ft 184 kts 164°
2026-05-08 04:36 36.15795 120.30520 3195 ft 183 kts 164°
2026-05-08 04:37 36.14561 120.30989 3159 ft 187 kts 164°
2026-05-08 04:37 36.13308 120.31469 3142 ft 190 kts 164°
2026-05-08 04:37 36.12036 120.31957 3133 ft 192 kts 165°
2026-05-08 04:37 36.10740 120.32095 3111 ft 185 kts 202°
2026-05-08 04:38 36.09850 120.31100 3133 ft 171 kts 249°
2026-05-08 04:38 36.09410 120.29678 3136 ft 177 kts 255°
2026-05-08 04:38 36.09011 120.28225 3133 ft 184 kts 256°
2026-05-08 04:38 36.08595 120.26680 3126 ft 191 kts 256°
2026-05-08 04:39 36.08187 120.25116 3123 ft 195 kts 258°
2026-05-08 04:39 36.08201 120.23490 3125 ft 190 kts 292°
2026-05-08 04:39 36.08888 120.22090 3131 ft 190 kts 306°
2026-05-08 04:39 36.09655 120.20725 3134 ft 194 kts 306°
2026-05-08 04:40 36.10434 120.19340 3131 ft 196 kts 306°
2026-05-08 04:40 36.11223 120.17964 3121 ft 197 kts 309°
2026-05-08 04:40 36.12280 120.16960 3105 ft 184 kts 335°
2026-05-08 04:40 36.13452 120.16467 3104 ft 169 kts 341°
2026-05-08 04:41 36.14508 120.16058 3098 ft 157 kts 340°
2026-05-08 04:41 36.15556 120.15639 3111 ft 156 kts 341°
2026-05-08 04:41 36.16606 120.15228 3121 ft 157 kts 341°
2026-05-08 04:41 36.17665 120.14815 3127 ft 159 kts 341°
2026-05-08 04:42 36.18729 120.14399 3108 ft 162 kts 341°
2026-05-08 04:42 36.19864 120.13955 2945 ft 175 kts 341°
2026-05-08 04:42 36.20993 120.13508 2666 ft 162 kts 340°
2026-05-08 04:42 36.22003 120.13100 2403 ft 142 kts 340°
2026-05-08 04:43 36.22862 120.12760 2280 ft 123 kts 341°
2026-05-08 04:43 36.23702 120.12450 2171 ft 127 kts 341°
2026-05-08 04:43 36.24572 120.12119 2033 ft 134 kts 340°
2026-05-08 04:43 36.25476 120.11757 1863 ft 137 kts 340°
2026-05-08 04:44 36.26393 120.11383 1528 ft 136 kts 339°
2026-05-08 04:44 36.27256 120.11022 1305 ft 128 kts 339°
2026-05-08 04:44 36.28090 120.10677 1163 ft 124 kts 340°
2026-05-08 04:44 36.28925 120.10372 1011 ft 126 kts 341°
2026-05-08 04:45 36.29768 120.10068 856 ft 126 kts 344°
2026-05-08 04:45 36.30603 120.09756 710 ft 125 kts 340°
2026-05-08 04:45 36.31435 120.09430 588 ft 125 kts 341°
2026-05-08 04:45 36.32240 120.09071 462 ft 128 kts 337°
2026-05-08 04:46 36.33129 120.08720 282 ft 133 kts 341°
2026-05-08 04:46 36.34020 120.08378 100 ft 132 kts 339°
2026-05-08 04:46 36.34742 120.08083 54 ft 71 kts 342°
2026-05-08 04:46 36.35133 120.07936 48 ft 47 kts 342°
2026-05-08 04:47 36.35387 120.07840 46 ft 28 kts 347°
2026-05-08 04:47 36.35528 120.07827 46 ft 13 kts
2026-05-08 04:47 36.35615 120.07838 46 ft 11 kts 10°
2026-05-08 04:47 36.35671 120.07850 45 ft 6 kts
2026-05-08 04:48 36.35694 120.07868 45 ft 2 kts 20°
2026-05-08 04:48 36.35717 120.07871 45 ft 3 kts
2026-05-08 04:48 36.35746 120.07874 44 ft 4 kts
2026-05-08 04:48 36.35776 120.07876 44 ft 3 kts
2026-05-08 04:49 36.35802 120.07883 44 ft 3 kts 27°
2026-05-08 04:49 36.35819 120.07912 43 ft 5 kts 64°
2026-05-08 04:49 36.35834 120.07953 44 ft 4 kts 69°
2026-05-08 04:49 36.35845 120.07992 44 ft 5 kts 70°
2026-05-08 04:50 36.35856 120.08028 45 ft 3 kts 61°
2026-05-08 04:50 36.35877 120.08045 45 ft 3 kts
2026-05-08 04:50 36.35900 120.08040 45 ft 3 kts 345°
2026-05-08 04:50 36.35922 120.08032 44 ft 3 kts 345°
2026-05-08 04:51 36.35948 120.08033 44 ft 2 kts 42°
2026-05-08 04:51 36.35959 120.08058 44 ft 2 kts 69°
2026-05-08 04:51 36.35964 120.08075 45 ft 1 kts 71°
2026-05-08 04:51 36.35967 120.08085 45 ft 1 kts 71°
2026-05-08 04:52 36.35967 120.08086 45 ft 0 kts 71°